CALIPSO

Satellite information

Favourite Embed

Satellite Type and Status

PAYLOADIN ORBIT

Key statistics

Satellite CALIPSO at a glance.

Uptime

7012

Days in orbit

Revolutions

≈ 14.7

Per day

Orbit

SSO

Sun Synchronous Orbit

Inclination

98.4

Latest

Satellite identification and parameters

Extended collection of information and parameters for CALIPSO.

Object identification

Identified? True

Debris? False

Object name: CALIPSO

International designator: 2006-016B

Object number (NORAD): 29108

Object ID (CCSDS): 29108

Country: FRANCE (FR)

Current information (Y/N): Y

RCS size: LARGE

Orbital parameters

Period: 98.074 minutes

Inclination: 98.4472 deg

SMA: 7044.703 km

Apoapsis: 667.204 km

Periapsis: 665.933 km

RAAN: 189.0209 deg

Eccentricy: 0.0000902

Argument of periapsis: 84.8001 deg

Mean anomaly: 275.3306 deg

Mean motion: 14.6827938 rev/day

Mean motion (dot): 0.00000764 rev/day2

B* drag term: 0.00014153 1/REarth

Two-line elements (TLE)

Creation date: July 9, 2025, 2:22 a.m.

Reference frame: TEME

Reference center: EARTH

Epoch: July 8, 2025, 9:36 p.m. UTC

TLE line 0: 0 CALIPSO

TLE line 1: 1 29108U 06016B 25189.90051886 .00000764 00000-0 14153-3 0 9999

TLE line 2: 2 29108 98.4472 189.0209 0000902 84.8001 275.3306 14.68279380 22667

Live tracking on map

Real-time ground track for satellite CALIPSO.

In-orbit conjunctions

There are no conjunctions computed for CALIPSO, at the moment. Check back to stay up to date, as we update our databases every day.

Go to all conjunctions

Associated space launch

CloudSat is a satellite which uses millimeter-wavelength radar to measure the altitude and properties of clouds. Advanced cloud-profiling radar gathers information on the vertical structure of highly dynamic cloud systems. This new information provides the first global measurements of cloud properties that will help scientists compile a database of cloud measurements to improve how clouds are represented in global climate and numerical weather prediction models.

CALIPSO was lifted into orbit during the mission ‘Delta 7420-10C | Cloudsat’, on board a Delta 7420-10C space rocket.

The launch took place on April 28, 2006, 10:02 a.m. from Space Launch Complex 2W.

For more information about the launch, click the button.

Launch to space Delta 7420-10C | Cloudsat
Delta 7420-10C | Cloudsat

Agency: N/A

Status: Launch Successful

Launch date: April 28, 2006, 10:02 a.m. UTC

Rocket: Delta 7420-10C

Launch pad: Space Launch Complex 2W

Location: Vandenberg SFB, CA, USA

...

Latest news about this satellite

There are no fresh news available about this satellite. Check back as we update our databases every day.


Newsletter sign-up

Weekly statistics, charts and insights to help you stay on top of the space industry.